Weather in Polivyanka

Russia / Rostov Oblast     46°15′24″N   41°24′18″E
temp.,
°C
wind,
m/s
gust,
m/s
humid.,
%
clouds,
%
prec.,
mm/h
press.,
hPa
HPBL,
m
28 january, thu
thu2800:00+3ese51291100 0.0 1007324
03:00+2ese51293100 0.0 1005283
06:00+2e61195100 0.0 1005272
09:00+2s1298100 0.0 100570
12:00+5se349095 0.0 1006354
15:00+6ne118984 0.0 100746
18:00+5w2293100 0.1 100826
21:00+4wsw4893100 0.1 1010198
29 january, fri
fri2900:00+2wsw3592100 0.0 1012111
03:00+1wsw358787 0.0 1012121
06:00+1sw368293 0.0 1012141
09:00+2sw378297 0.0 1013208
12:00+5sw5866100 0.0 1013995
15:00+6sw5964100 0.0 10121409
18:00+3ssw488167 0.0 1013167
21:00+2ssw5128850 0.0 1013335
30 january, sat
sat3000:00+1ssw5108882 0.0 1013238
03:00+1s488680 0.0 1013168
06:000s478686 0.0 1012162
09:00+2s588291 0.0 1012254
12:00+6s466477 0.0 1011408
15:00+8sse455548 0.0 1010586
18:00+4se477510 0.0 1010134
21:00+2se512755 0.0 1009349
31 january, sun
sun3100:00+2ese513800 0.0 1008376
03:00+2ese6148630 0.0 1005405
06:00+2ese7139095 0.0 1005299
09:00+2se478998 0.1 1005181
12:00+9sw91670100 0.4 10071137
15:00+8wsw91684100 0.6 1007907
18:00+6wsw51484100 0.1 1010495
21:00+6w51088100 0.3 1014506
1 february, mon
mon100:00+4nw2571100 0.0 1016266
03:00+3ese2269100 0.0 101662
06:00+3e3475100 0.0 1016106
09:00+4ese5989100 0.0 1017258
12:00+9se81562100 0.0 1016819
15:00+10se91657100 0.0 1014752
18:00+8se81667100 0.0 1014539
21:00+7se71477100 0.0 1014411